This demonstration page uses our WeatherBlox Daily Observations layout. Learn more.

Left ArrowRight Arrow

Hourly Observations for March 25, 2021

Temp ( °F °C ) Dew Point ( °F °C ) Humidity (%) Winds ( mph kmh ) Pressure ( in mb ) Visibility ( mi km ) Precip ( " mm )
12:53 am 00:53 Cloudy 38 3.3 23 -5 55 55 WSW 9 15 29.52 1000 10 16.0934 0 0
1:53 am 01:53 Mostly Cloudy 36 2.2 24 -4.4 62 62 SW 8 13 29.52 1000 10 16.0934 0 0
2:53 am 02:53 Cloudy 35 1.7 23 -5 61 61 SW 7 11 29.53 1000 10 16.0934 0 0
3:53 am 03:53 Cloudy 35 1.7 23 -5 61 61 W 7 11 29.53 1000 10 16.0934 0 0
4:53 am 04:53 Cloudy 30 -1.1 22 -5.6 72 72 WNW 5 7 29.54 1001 10 16.0934 0 0
5:53 am 05:53 Mostly Cloudy 32 0 24 -4.4 73 73 WSW 7 11 29.56 1001 10 16.0934 0 0
6:48 am 06:48 Cloudy with Light Snow 34 1 30 -1 87 87 W 10 17 29.62 1003 2.5 4.02335 0.01 0.254
6:53 am 06:53 Cloudy with Light Snow 33 0.6 30 -1.1 89 89 WSW 12 19 29.57 1001 2 3.21868 0.02 0.508
7:08 am 07:08 Cloudy with Light Snow 33 0.6 31 -0.6 92 92 WSW 10 17 29.63 1003 5 8.0467 0.01 0.254
7:27 am 07:27 Cloudy 33 0.6 32 0 96 96 WSW 8 13 29.63 1003 10 16.0934 0.01 0.254
7:53 am 07:53 Cloudy 34 1.1 32 0 92 92 W 10 17 29.59 1002 10 16.0934 0.02 0.508
8:53 am 08:53 Cloudy 34 1.1 32 0 92 92 WNW 12 19 29.61 1003 10 16.0934 0 0
9:53 am 09:53 Cloudy 35 1.7 33 0.6 93 93 NW 16 26 29.65 1004 10 16.0934 0 0
10:53 am 10:53 Cloudy with Light Snow 35 1.7 33 0.6 93 93 NW 15 24 29.67 1005 4 6.43736 0.001 0.001
11:30 am 11:30 Cloudy with Light Snow 34 1.1 32 0 92 92 NW 17 28 29.74 1007 1.75 2.816345 0.001 0.001
11:53 am 11:53 Cloudy with Light Snow 34 1.1 32 0 92 92 NW 18 30 29.71 1006 1 1.60934 0.01 0.254
12:04 pm 12:04 Cloudy with Light Snow 34 1 32 0 93 93 NW 17 28 29.75 1007 2 3.21868 0 0
12:16 pm 12:16 Cloudy with Light Snow 34 1.1 33 0.6 97 97 NW 18 30 29.76 1008 4 6.43736 0.001 0.001
12:31 pm 12:31 Cloudy with Light Snow 35 1.7 33 0.6 93 93 NW 18 30 29.75 1007 5 8.0467 0.001 0.001
12:53 pm 12:53 Cloudy 35 1.7 33 0.6 93 93 NW 20 31 29.73 1007 7 11.26538 0.01 0.254
1:50 pm 13:50 Windy with Snow Likely 36 2 34 1 93 93 NW 20 31 29.79 1009 5 8.0467 0.001 0.001
1:53 pm 13:53 Windy with Snow Likely 35 1.7 33 0.6 93 93 NW 21 33 29.77 1008 5 8.0467 0.001 0.001
2:01 pm 14:01 Cloudy 36 2.2 32 0 86 86 NW 16 26 29.79 1009 8 12.87472 0.001 0.001
2:09 pm 14:09 Cloudy 35 1.7 32 0 89 89 NW 17 28 29.8 1009 9 14.48406 0.001 0.001
2:22 pm 14:22 Windy with Snow Likely 34 1.1 32 0 92 92 NW 20 31 29.82 1010 2.5 4.02335 0.001 0.001
2:25 pm 14:25 Cloudy with Light Snow 34 1.1 32 0 92 92 NW 17 28 29.82 1010 3 4.82802 0.001 0.001
2:53 pm 14:53 Cloudy 34 1.1 30 -1.1 85 85 NW 21 33 29.8 1009 10 16.0934 0.001 0.001
3:06 pm 15:06 Windy with Snow Likely 34 1.1 30 -1.1 85 85 NW 22 35 29.83 1010 1.75 2.816345 0.001 0.001
3:14 pm 15:14 Cloudy with Light Snow 34 1.1 30 -1.1 85 85 NW 18 30 29.83 1010 1.25 2.011675 0.001 0.001
3:19 pm 15:19 Windy with Snow Likely 34 1.1 30 -1.1 85 85 NW 23 37 29.83 1010 2 3.21868 0.001 0.001
3:28 pm 15:28 Cloudy with Light Snow 34 1.1 30 -1.1 85 85 NW 17 28 29.84 1010 3 4.82802 0.001 0.001
3:53 pm 15:53 Cloudy 34 1.1 30 -1.1 85 85 NW 17 28 29.82 1010 8 12.87472 0.001 0.001
4:11 pm 16:11 Cloudy 35 1.7 30 -1.1 82 82 NW 20 31 29.84 1011 10 16.0934 0 0
4:53 pm 16:53 Cloudy 37 2.8 30 -1.1 76 76 NW 14 22 29.83 1010 10 16.0934 0 0
5:11 pm 17:11 Cloudy 36 2.2 29 -1.7 76 76 NNW 18 30 29.86 1011 10 16.0934 0 0
5:53 pm 17:53 Cloudy 35 1.7 28 -2.2 76 76 NW 14 22 29.86 1011 10 16.0934 0 0
6:53 pm 18:53 Cloudy 34 1.1 27 -2.8 76 76 NW 13 20 29.88 1012 10 16.0934 0 0
7:53 pm 19:53 Cloudy 31 -0.6 25 -3.9 79 79 NW 12 19 29.91 1013 10 16.0934 0 0
8:53 pm 20:53 Cloudy 30 -1.1 25 -3.9 82 82 NW 6 9 29.94 1014 10 16.0934 0 0
9:53 pm 21:53 Cloudy 30 -1.1 24 -4.4 79 79 ENE 3 6 29.95 1014 10 16.0934 0 0
10:53 pm 22:53 Cloudy 30 -1.1 23 -5 75 75 ENE 6 9 29.96 1015 10 16.0934 0 0
11:53 pm 23:53 Cloudy 29 -1.7 23 -5 78 78 Calm 29.98 1015 10 16.0934 0 0

Powered by AerisWeather